EA2MKR Weather Reports


time (UTC)temp
F
wind
direction
speed
knots
gust
knots
rain 1hr
in
rain 24hr
in
rain mn
in
humidity
%
barometer
mb
20260510192701 52 162 0.0 4.3 0.10 0.31 0.31 86 948.0
20260510192604 52 237 0.0 4.3 0.10 0.31 0.31 86 948.0
20260510192312 53 289 3.5 4.3 0.10 0.31 0.31 86 947.8
20260510191811 53 323 3.5 10.4 0.10 0.31 0.31 86 947.8
20260510191312 53 276 2.6 10.4 0.10 0.31 0.31 84 948.0
20260510190700 53 300 3.5 13.9 0.10 0.31 0.31 84 948.0
20260510190604 53 344 5.2 13.9 0.10 0.31 0.31 84 948.0
20260510190201 54 326 7.0 13.9 0.09 0.31 0.31 84 947.6
20260510190104 54 282 4.3 13.0 0.09 0.31 0.31 88 947.8
20260510185813 54 30 7.8 13.0 0.09 0.21 0.29 88 948.3
20260510185200 55 83 2.6 4.3 0.04 0.21 0.25 83 948.0
20260510185104 55 80 0.9 4.3 0.04 0.21 0.24 83 947.9
20260510184700 55 317 0.9 4.3 0.02 0.21 0.24 83 947.7
20260510184603 55 264 0.9 4.3 0.02 0.21 0.24 83 947.7
20260510184200 56 275 0.9 5.2 0.02 0.21 0.23 83 947.4
20260510184103 56 268 0.9 5.2 0.02 0.21 0.23 83 947.4
20260510183813 56 271 0.9 6.1 0.01 0.21 0.22 79 947.2
20260510183200 57 296 2.6 7.8 0.00 0.21 0.21 79 947.1
20260510183104 57 221 3.5 7.8 0.00 0.21 0.21 79 947.0
20260510182659 57 228 4.3 7.8 0.00 0.21 0.21 79 947.0
20260510182604 57 268 3.5 5.2 0.00 0.21 0.21 79 946.9
20260510182200 57 247 3.5 6.1 0.00 0.21 0.21 71 947.0
20260510182104 57 314 2.6 6.1 0.00 0.21 0.21 71 947.0
20260510181659 57 220 2.6 6.1 0.00 0.21 0.21 71 947.1
20260510181604 57 250 2.6 6.1 0.00 0.21 0.21 71 947.0
20260510181159 57 266 3.5 6.1 0.00 0.21 0.21 71 947.0
20260510181103 57 209 3.5 8.7 0.00 0.21 0.21 71 946.9
20260510180659 58 286 2.6 8.7 0.00 0.21 0.21 71 947.0
20260510180604 58 248 2.6 8.7 0.00 0.21 0.21 71 947.0
20260510180159 58 271 5.2 8.7 0.00 0.21 0.21 71 946.9
20260510180103 58 230 4.3 8.7 0.00 0.21 0.21 71 946.8
20260510175812 59 248 2.6 8.7 0.00 0.21 0.21 71 946.9
20260510175159 60 286 5.2 8.7 0.00 0.21 0.21 71 946.9
20260510175104 60 299 4.3 8.7 0.00 0.21 0.21 71 946.9
20260510174659 60 285 4.3 8.7 0.00 0.21 0.21 71 946.9
20260510174603 60 279 4.3 8.7 0.00 0.21 0.21 71 947.0
20260510174158 60 314 5.2 8.7 0.00 0.21 0.21 71 947.0
20260510174104 60 300 4.3 7.8 0.00 0.21 0.21 71 947.0
20260510173812 60 295 4.3 7.8 0.00 0.21 0.21 71 946.9
20260510173158 61 285 4.3 5.2 0.00 0.21 0.21 71 946.9
20260510173104 61 300 3.5 5.2 0.00 0.21 0.21 71 946.9
20260510172657 61 248 2.6 6.1 0.00 0.21 0.21 71 946.9
20260510172603 61 296 3.5 6.1 0.00 0.21 0.21 71 946.9
20260510172150 61 109 3.5 7.8 0.00 0.21 0.21 71 946.9
20260510172103 61 290 4.3 7.8 0.00 0.21 0.21 71 946.9
20260510171648 61 293 3.5 7.8 0.00 0.21 0.21 72 946.9
20260510171604 61 300 3.5 7.8 0.00 0.21 0.21 72 946.9
20260510171145 61 343 4.3 6.1 0.00 0.21 0.21 72 946.9
20260510171104 61 333 3.5 6.1 0.00 0.21 0.21 72 946.9
20260510170642 61 298 5.2 6.1 0.00 0.21 0.21 74 947.1
20260510170603 61 295 5.2 6.1 0.00 0.21 0.21 74 947.1
20260510170141 61 279 3.5 6.1 0.00 0.21 0.21 74 947.0
20260510170104 61 299 2.6 6.1 0.00 0.21 0.21 74 947.0
20260510165636 61 351 5.2 6.1 0.00 0.21 0.21 74 947.1
20260510165603 61 355 5.2 6.1 0.00 0.21 0.21 74 947.1
20260510165135 60 350 3.5 6.1 0.00 0.21 0.21 74 947.1
20260510165104 60 305 3.5 6.1 0.00 0.21 0.21 74 947.1
20260510164631 60 336 3.5 6.1 0.00 0.21 0.21 75 947.1
20260510164604 60 313 4.3 7.8 0.00 0.21 0.21 75 947.1
20260510164131 60 316 4.3 9.6 0.00 0.21 0.21 75 947.0
20260510164104 60 334 4.3 9.6 0.00 0.21 0.21 75 947.0
20260510163626 60 305 3.5 9.6 0.00 0.21 0.21 75 946.9
20260510163603 60 295 3.5 9.6 0.00 0.21 0.21 75 946.9
20260510163103 60 309 6.1 9.6 0.00 0.21 0.21 75 947.0
20260510162621 60 300 4.3 6.1 0.00 0.21 0.21 81 947.0
20260510162603 60 300 3.5 6.1 0.00 0.21 0.21 81 947.0
20260510162104 60 326 3.5 6.1 0.00 0.21 0.21 81 947.0
20260510161604 59 299 3.5 6.1 0.00 0.21 0.21 81 947.0
20260510161103 59 309 3.5 6.1 0.00 0.21 0.21 81 946.9
20260510160600 58 272 2.6 6.1 0.00 0.21 0.21 81 946.9
20260510160059 59 292 3.5 4.3 0.00 0.21 0.21 81 947.1
20260510155559 58 305 1.7 4.3 0.00 0.21 0.21 92 947.2
20260510155059 57 333 2.6 3.5 0.00 0.21 0.21 92 947.3
20260510154558 57 303 0.9 3.5 0.00 0.21 0.21 92 947.3
20260510154100 56 337 0.9 4.3 0.01 0.21 0.21 92 947.3
20260510153559 56 358 2.6 4.3 0.02 0.21 0.21 92 947.2
20260510153059 56 286 2.6 3.5 0.04 0.21 0.21 92 947.3
20260510153055 56 299 3.5 3.5 0.04 0.21 0.21 92 947.2
20260510152555 56 268 1.7 3.5 0.06 0.21 0.21 92 946.9
20260510152547 56 268 2.6 3.5 0.06 0.21 0.21 92 947.0
20260510152033 55 278 1.7 3.5 0.08 0.21 0.21 92 947.2
20260510151555 55 264 1.7 3.5 0.10 0.21 0.21 92 947.4
20260510151533 55 264 1.7 3.5 0.10 0.21 0.21 92 947.5
20260510151055 55 266 1.7 4.3 0.13 0.21 0.21 92 947.6
20260510151034 55 250 1.7 4.3 0.13 0.21 0.21 92 947.7
20260510150556 55 281 1.7 4.3 0.15 0.21 0.21 92 947.9
20260510150534 55 281 1.7 4.3 0.16 0.21 0.21 92 948.0
20260510150055 54 262 2.6 4.3 0.17 0.21 0.21 92 948.0
20260510150034 54 281 2.6 4.3 0.17 0.21 0.21 92 948.0
20260510145533 53 223 1.7 3.5 0.17 0.05 0.21 92 947.9
20260510145243 53 264 2.6 3.5 0.19 0.05 0.21 92 947.9
20260510144555 53 219 1.7 2.6 0.21 0.05 0.21 91 948.0
20260510144534 53 217 1.7 2.6 0.21 0.05 0.21 91 948.1
20260510144054 52 104 0.0 1.7 0.20 0.05 0.19 91 948.3
20260510144034 52 104 0.0 1.7 0.20 0.05 0.19 91 948.4
20260510143555 52 104 0.0 4.3 0.19 0.05 0.19 91 948.5
20260510143533 52 104 0.0 4.3 0.19 0.05 0.18 91 948.4
20260510143055 52 97 2.6 6.1 0.17 0.05 0.17 91 948.5
20260510143034 52 97 2.6 7.8 0.17 0.05 0.17 91 948.5
20260510142741 52 106 3.5 9.6 0.16 0.05 0.14 83 948.4
20260510142054 53 85 6.1 9.6 0.13 0.05 0.13 83 948.5
20260510142034 53 86 6.1 9.6 0.13 0.05 0.13 83 948.5
20260510141554 53 90 5.2 8.7 0.11 0.05 0.11 83 948.3
20260510141533 53 96 2.6 8.7 0.11 0.05 0.11 83 948.3
20260510141054 54 85 5.2 8.7 0.09 0.05 0.09 83 948.3
20260510141005 54 94 5.2 8.7 0.09 0.05 0.09 83 948.3
20260510140554 54 75 3.5 4.3 0.06 0.05 0.06 83 948.3
20260510140513 54 65 3.5 4.3 0.06 0.05 0.05 83 948.4
20260510140054 54 281 0.0 0.9 0.05 0.05 0.05 57 948.3
20260510140005 54 281 0.0 0.9 0.05 0.00 0.04 57 948.2
20260510135714 54 276 0.0 9.6 0.04 0.00 0.04 57 948.0
20260510135214 56 299 3.5 16.5 0.02 0.00 0.02 57 948.0
20260510134715 58 314 9.6 22.6 0.00 0.00 0.00 57 948.3
20260510134214 60 323 9.6 22.6 0.00 0.00 0.00 57 947.9
20260510133553 61 307 7.8 14.8 0.00 0.00 0.00 57 947.2
20260510133504 62 321 7.8 14.8 0.00 0.00 0.00 57 947.2
20260510133054 62 326 3.5 10.4 0.00 0.00 0.00 52 946.6
20260510133006 62 35 3.5 10.4 0.00 0.00 0.00 52 946.6
20260510132554 62 343 6.1 10.4 0.00 0.00 0.00 52 946.6
20260510132505 62 317 5.2 8.7 0.00 0.00 0.00 52 946.6
20260510132053 62 337 5.2 8.7 0.00 0.00 0.00 52 946.6
20260510132005 62 344 3.5 8.7 0.00 0.00 0.00 52 946.5
20260510131553 62 38 3.5 8.7 0.00 0.00 0.00 52 946.5
20260510131505 62 82 3.5 10.4 0.00 0.00 0.00 52 946.6
20260510131053 62 4 3.5 10.4 0.00 0.00 0.00 57 946.6
20260510131006 62 41 3.5 10.4 0.00 0.00 0.00 57 946.7
20260510130553 63 41 5.2 10.4 0.00 0.00 0.00 55 946.7
20260510130506 63 320 4.3 11.3 0.00 0.00 0.00 55 946.7
20260510130053 63 326 4.3 11.3 0.00 0.00 0.00 55 946.7
20260510130005 63 0 4.3 11.3 0.00 0.00 0.00 55 946.7
20260510125614 64 343 7.0 11.3 0.00 0.00 0.00 55 946.7
20260510125612 64 350 6.1 11.3 0.00 0.00 0.00 55 946.7
20260510125214 64 343 7.8 11.3 0.00 0.00 0.00 56 946.7
20260510124714 64 0 6.1 9.6 0.00 0.00 0.00 56 946.6
20260510124214 64 330 5.2 10.4 0.00 0.00 0.00 56 946.6
20260510123552 64 340 7.0 13.0 0.00 0.00 0.00 56 946.7
20260510123504 64 331 7.8 13.0 0.00 0.00 0.00 56 946.8
20260510123052 65 320 6.1 13.0 0.00 0.00 0.00 56 946.8
20260510123005 65 316 7.8 13.0 0.00 0.00 0.00 60 946.8
20260510122552 65 330 5.2 10.4 0.00 0.00 0.00 60 946.8
20260510122507 65 290 6.1 10.4 0.00 0.00 0.00 60 946.8
20260510122052 65 305 4.3 10.4 0.00 0.00 0.00 60 946.9
20260510122006 64 306 3.5 10.4 0.00 0.00 0.00 60 946.9
20260510121713 64 320 6.1 10.4 0.00 0.00 0.00 57 947.0
20260510121051 64 357 3.5 10.4 0.00 0.00 0.00 55 947.1
20260510121004 64 319 4.3 10.4 0.00 0.00 0.00 55 947.1
20260510120552 64 334 4.3 10.4 0.00 0.00 0.00 61 947.2
20260510120506 64 337 5.2 10.4 0.00 0.00 0.00 61 947.2
20260510120051 64 350 3.5 8.7 0.00 0.00 0.00 61 947.2
20260510120005 64 329 3.5 8.7 0.00 0.00 0.00 61 947.3
20260510115552 64 302 5.2 9.6 0.00 0.00 0.00 61 947.4
20260510115505 64 338 5.2 9.6 0.00 0.00 0.00 61 947.3
20260510115051 62 340 4.3 9.6 0.00 0.00 0.00 61 947.4
20260510115006 62 320 5.2 9.6 0.00 0.00 0.00 61 947.4
20260510114713 62 317 6.1 11.3 0.00 0.00 0.00 61 947.4
20260510114051 62 340 3.5 11.3 0.00 0.00 0.00 61 947.5
20260510114005 62 341 5.2 11.3 0.00 0.00 0.00 61 947.5
20260510113551 62 303 4.3 11.3 0.00 0.00 0.00 61 947.6
20260510113505 62 49 4.3 12.2 0.00 0.00 0.00 61 947.6
20260510113051 63 317 7.0 12.2 0.00 0.00 0.00 61 947.8
20260510113006 63 327 6.1 12.2 0.00 0.00 0.00 61 947.7
20260510112550 63 347 7.8 12.2 0.00 0.00 0.00 61 947.9
20260510112505 63 340 7.0 12.2 0.00 0.00 0.00 61 947.8
20260510112050 63 34 7.8 13.9 0.00 0.00 0.00 57 947.8
20260510112004 63 3 7.8 13.9 0.00 0.00 0.00 57 947.7
20260510111551 64 23 7.8 13.9 0.00 0.00 0.00 57 947.7
20260510111504 64 338 8.7 13.9 0.00 0.00 0.00 57 947.8
20260510111050 64 331 8.7 14.8 0.00 0.00 0.00 60 947.8
20260510111006 64 337 8.7 14.8 0.00 0.00 0.00 60 947.7
20260510110715 64 333 9.6 14.8 0.00 0.00 0.00 60 947.8
20260510110050 64 286 7.0 12.2 0.00 0.00 0.00 67 947.8
20260510110005 64 307 7.0 12.2 0.00 0.00 0.00 67 947.8
20260510105544 64 331 5.2 12.2 0.00 0.00 0.00 67 947.9
20260510105505 64 336 5.2 12.2 0.00 0.00 0.00 67 947.9
20260510105042 63 358 5.2 9.6 0.00 0.00 0.00 67 948.0
20260510105004 63 313 4.3 9.6 0.00 0.00 0.00 67 948.0
20260510104542 63 331 4.3 11.3 0.00 0.00 0.00 67 948.0
20260510104505 63 3 4.3 11.3 0.00 0.00 0.00 67 948.0
20260510104042 62 334 7.8 11.3 0.00 0.00 0.00 67 948.0
20260510104005 62 323 8.7 11.3 0.00 0.00 0.00 67 948.0
20260510103540 62 316 7.0 10.4 0.00 0.00 0.00 67 948.1
20260510103505 61 289 7.0 10.4 0.00 0.00 0.00 67 948.1
20260510103032 61 337 3.5 14.8 0.00 0.00 0.00 67 948.0
20260510103006 61 313 3.5 14.8 0.00 0.00 0.00 67 948.0
20260510102714 61 353 4.3 14.8 0.00 0.00 0.00 69 948.1
20260510102214 61 309 6.1 9.6 0.00 0.00 0.00 69 948.1
20260510101531 61 298 5.2 12.2 0.00 0.00 0.00 69 948.1
20260510101505 61 0 5.2 12.2 0.00 0.00 0.00 69 948.1
20260510101032 62 292 7.0 12.2 0.00 0.00 0.00 69 948.2
20260510101005 62 312 7.0 12.2 0.00 0.00 0.00 69 948.2
20260510100714 62 321 4.3 11.3 0.00 0.00 0.00 69 948.1
20260510100031 62 305 4.3 10.4 0.00 0.00 0.00 69 948.1
20260510100006 62 303 4.3 10.4 0.00 0.00 0.00 69 948.1
20260510095531 62 279 6.1 10.4 0.00 0.00 0.00 69 948.1
20260510095504 62 316 6.1 10.4 0.00 0.00 0.00 69 948.1
20260510095031 62 295 5.2 9.6 0.00 0.00 0.00 69 948.2
20260510095004 62 298 6.1 9.6 0.00 0.00 0.00 69 948.2
20260510094531 61 313 5.2 12.2 0.00 0.00 0.00 69 948.2
20260510094504 61 309 5.2 12.2 0.00 0.00 0.00 69 948.2
20260510094031 61 34 5.2 12.2 0.00 0.00 0.00 68 948.4
20260510094006 61 341 6.1 13.9 0.00 0.00 0.00 68 948.4
20260510093531 61 299 5.2 13.9 0.00 0.00 0.00 68 948.5
20260510093505 61 296 5.2 13.9 0.00 0.00 0.00 68 948.5
20260510093031 61 3 7.8 13.9 0.00 0.00 0.00 68 948.5
20260510093005 61 343 6.1 14.8 0.00 0.00 0.00 68 948.5
20260510092531 61 317 5.2 14.8 0.00 0.00 0.00 69 948.5
20260510092506 61 326 5.2 14.8 0.00 0.00 0.00 69 948.5
20260510092031 61 8 7.8 14.8 0.00 0.00 0.00 75 948.5
20260510092005 61 333 6.1 10.4 0.00 0.00 0.00 75 948.5
20260510091714 60 345 4.3 11.3 0.00 0.00 0.00 75 948.5
20260510091031 60 327 5.2 12.2 0.00 0.00 0.00 71 948.6
20260510091005 60 303 6.1 12.2 0.00 0.00 0.00 71 948.6
20260510090216 59 303 7.8 11.3 0.00 0.00 0.00 74 948.8
20260510085714 59 248 7.0 11.3 0.00 0.00 0.00 77 948.7
20260510085016 59 350 5.2 10.4 0.00 0.00 0.00 77 948.7
20260510085005 58 323 5.2 10.4 0.00 0.00 0.00 77 948.7
20260510084712 59 319 5.2 11.3 0.00 0.00 0.00 77 948.7
20260510084004 59 298 7.0 11.3 0.00 0.00 0.00 77 948.6
20260510083511 58 317 3.5 8.7 0.00 0.00 0.00 77 948.7
20260510083504 58 309 3.5 8.7 0.00 0.00 0.00 77 948.7
20260510083012 57 305 5.2 8.7 0.00 0.00 0.00 77 948.7
20260510083005 57 278 5.2 8.7 0.00 0.00 0.00 77 948.7
20260510082714 58 355 4.3 6.1 0.00 0.00 0.00 77 948.6
20260510082009 58 300 3.5 6.1 0.00 0.00 0.00 77 948.6
20260510082005 58 323 3.5 6.1 0.00 0.00 0.00 77 948.6
20260510081509 58 278 2.6 6.1 0.00 0.00 0.00 77 948.6
20260510081505 58 271 2.6 6.1 0.00 0.00 0.00 77 948.6
20260510081010 58 259 3.5 6.1 0.00 0.00 0.00 77 948.6
20260510081005 58 278 3.5 6.1 0.00 0.00 0.00 77 948.6
20260510080505 58 244 1.7 6.1 0.00 0.00 0.00 77 948.5
20260510080213 57 313 4.3 6.1 0.00 0.00 0.00 78 948.5
20260510075509 57 259 3.5 6.1 0.00 0.00 0.00 78 948.6
20260510075505 57 299 3.5 6.1 0.00 0.00 0.00 78 948.6
20260510075011 57 286 3.5 5.2 0.00 0.00 0.00 78 948.6
20260510075005 57 290 3.5 5.2 0.00 0.00 0.00 78 948.6
20260510074505 57 324 3.5 7.8 0.00 0.00 0.00 79 948.5
20260510074005 57 289 5.2 7.8 0.00 0.00 0.00 79 948.5
20260510073510 57 312 4.3 7.8 0.00 0.00 0.00 78 948.5
20260510073504 57 288 4.3 7.8 0.00 0.00 0.00 78 948.5
20260510073005 57 307 3.5 7.8 0.00 0.00 0.00 80 948.5
20260510072505 57 330 3.5 7.8 0.00 0.00 0.00 78 948.4
20260510072005 57 309 3.5 6.1 0.00 0.00 0.00 78 948.4
20260510071505 57 306 5.2 6.1 0.00 0.00 0.00 79 948.2
20260510071005 57 292 3.5 6.1 0.00 0.00 0.00 79 948.3
20260510070713 57 237 0.9 3.5 0.00 0.00 0.00 79 948.2
20260510070006 56 279 1.7 3.5 0.00 0.00 0.00 79 948.2
20260510065504 56 290 1.7 4.3 0.00 0.00 0.00 81 948.2
20260510065005 56 237 1.7 4.3 0.00 0.00 0.00 79 948.2
20260510064505 56 286 2.6 5.2 0.00 0.00 0.00 79 948.1
20260510064005 56 295 3.5 6.1 0.00 0.00 0.00 79 948.1
20260510063505 56 305 3.5 7.8 0.00 0.00 0.00 81 948.2
20260510063003 55 316 4.3 7.8 0.00 0.00 0.00 81 948.2
20260510062712 55 281 4.3 6.1 0.00 0.00 0.00 83 948.1
20260510061958 55 312 3.5 6.1 0.00 0.00 0.00 84 948.1
20260510061450 54 252 3.5 5.2 0.00 0.00 0.00 85 948.0
20260510060951 54 258 1.7 4.3 0.00 0.00 0.00 86 947.9
20260510060449 53 265 1.7 4.3 0.00 0.00 0.00 85 947.8
20260510055950 53 268 1.7 2.6 0.00 0.00 0.00 85 947.8
20260510055658 53 213 0.9 2.6 0.00 0.00 0.00 85 947.7
20260510054950 53 235 0.9 2.6 0.00 0.00 0.00 85 947.7
20260510054449 54 261 0.0 1.7 0.00 0.00 0.00 85 947.8
20260510053950 54 262 0.0 1.7 0.00 0.00 0.00 85 947.6
20260510053449 54 213 0.9 1.7 0.00 0.00 0.00 85 947.5
20260510053157 53 217 0.0 1.7 0.00 0.00 0.00 85 947.6
20260510052448 54 217 0.0 1.7 0.00 0.00 0.00 85 947.6
20260510051939 0 131 0.0 0.9 0.00 0.00 0.00 947.7
20260510051437 54 131 0.0 0.9 0.00 0.00 0.00 84 947.6
20260510050936 54 131 0.0 0.9 0.00 0.00 0.00 84 947.6
20260510050435 54 131 0.0 0.0 0.00 0.00 0.00 84 947.5
20260510045937 54 130 0.0 1.7 0.00 0.00 0.00 84 947.6
20260510045644 54 127 0.0 1.7 0.00 0.00 0.00 84 947.7
20260510044935 54 125 0.0 0.9 0.00 0.00 0.00 84 947.7
20260510044435 53 125 0.0 0.9 0.00 0.00 0.00 84 947.7
20260510043933 54 135 0.0 0.9 0.00 0.00 0.00 83 947.7
20260510043422 54 134 0.9 0.9 0.00 0.00 0.00 81 947.6
20260510043123 54 252 0.0 1.7 0.00 0.00 0.00 81 947.6
20260510042616 54 252 0.0 5.2 0.00 0.00 0.00 81 947.5
20260510041908 55 49 2.6 5.2 0.00 0.00 0.00 81 947.6
20260510041408 55 48 1.7 4.3 0.00 0.00 0.00 81 947.6
20260510040908 55 300 0.9 6.1 0.00 0.00 0.00 81 947.6
20260510040409 55 331 1.7 8.7 0.00 0.00 0.00 81 947.6
20260510035907 55 326 3.5 8.7 0.00 0.00 0.00 84 947.6
20260510035408 55 61 1.7 3.5 0.00 0.00 0.00 84 947.6
20260510034907 55 261 0.0 2.6 0.00 0.00 0.00 84 947.6
20260510034408 55 302 1.7 4.3 0.00 0.00 0.00 84 947.6
20260510033906 55 298 0.9 6.1 0.00 0.00 0.00 81 947.5
20260510033410 55 210 4.3 8.7 0.00 0.00 0.00 81 947.5
20260510032906 55 292 5.2 11.3 0.00 0.00 0.00 81 947.4
20260510032408 55 306 4.3 11.3 0.00 0.00 0.00 81 947.3
20260510032114 55 293 4.3 7.8 0.00 0.00 0.00 81 947.3
20260510031411 55 299 3.5 7.8 0.00 0.00 0.00 81 947.2
20260510031407 55 292 3.5 7.8 0.00 0.00 0.00 81 947.2
20260510030910 55 302 3.5 7.8 0.00 0.00 0.00 81 947.3
20260510030906 55 341 2.6 7.8 0.00 0.00 0.00 81 947.3
20260510030407 56 279 3.5 7.8 0.00 0.00 0.00 81 947.2
20260510025910 56 274 1.7 5.2 0.00 0.00 0.00 81 947.3
20260510025906 56 259 1.7 5.2 0.00 0.00 0.00 81 947.3
20260510025407 56 298 1.7 6.1 0.00 0.00 0.00 81 947.2
20260510024910 56 288 3.5 9.6 0.00 0.00 0.00 81 947.2
20260510024906 56 288 3.5 9.6 0.00 0.00 0.00 81 947.2
20260510024410 56 289 2.6 9.6 0.00 0.00 0.00 81 947.2
20260510024406 56 289 2.6 9.6 0.00 0.00 0.00 81 947.2
20260510023909 56 296 5.2 12.2 0.00 0.00 0.00 81 947.0
20260510023905 56 274 5.2 12.2 0.00 0.00 0.00 81 947.0
20260510023413 56 299 5.2 12.2 0.00 0.00 0.00 81 947.3
20260510023406 56 274 5.2 12.2 0.00 0.00 0.00 81 947.3
20260510022909 56 276 5.2 9.6 0.00 0.00 0.00 81 947.5
20260510022905 56 276 5.2 9.6 0.00 0.00 0.00 81 947.5
20260510022410 56 303 7.0 9.6 0.00 0.00 0.00 81 947.6
20260510022406 56 286 6.1 9.6 0.00 0.00 0.00 81 947.6
20260510021908 56 302 6.1 9.6 0.00 0.00 0.00 81 947.5
20260510021904 56 302 6.1 9.6 0.00 0.00 0.00 81 947.5
20260510021410 55 214 4.3 8.7 0.00 0.00 0.00 81 947.4
20260510021406 55 307 4.3 8.7 0.00 0.00 0.00 81 947.4
20260510020909 55 234 2.6 6.1 0.00 0.00 0.00 81 947.4
20260510020905 55 234 2.6 6.1 0.00 0.00 0.00 81 947.4
20260510020412 55 278 1.7 5.2 0.00 0.00 0.00 81 947.4
20260510020405 55 279 1.7 5.2 0.00 0.00 0.00 81 947.4
20260510015908 55 282 2.6 5.2 0.00 0.00 0.00 80 947.4
20260510015904 55 224 2.6 5.2 0.00 0.00 0.00 80 947.4
20260510015409 56 250 3.5 5.2 0.00 0.00 0.00 80 947.3
20260510015405 56 250 3.5 5.2 0.00 0.00 0.00 80 947.3
20260510014909 56 245 1.7 6.1 0.00 0.00 0.00 80 947.3
20260510014904 56 238 1.7 6.1 0.00 0.00 0.00 80 947.3
20260510014409 55 276 3.5 6.1 0.00 0.00 0.00 81 947.4
20260510014405 55 299 4.3 6.1 0.00 0.00 0.00 81 947.4
20260510013909 55 258 2.6 5.2 0.00 0.00 0.00 81 947.4
20260510013904 55 281 2.6 5.2 0.00 0.00 0.00 81 947.4
20260510013412 55 266 2.6 4.3 0.00 0.00 0.00 81 947.5
20260510013405 55 266 2.6 4.3 0.00 0.00 0.00 81 947.5
20260510012908 55 247 1.7 3.5 0.00 0.00 0.00 81 947.5
20260510012904 55 247 1.7 3.5 0.00 0.00 0.00 81 947.5
20260510012613 55 262 0.9 4.3 0.00 0.00 0.00 81 947.6
20260510011908 55 252 0.9 6.1 0.00 0.00 0.00 81 947.5
20260510011904 55 252 0.9 6.1 0.00 0.00 0.00 81 947.5
20260510011409 55 324 2.6 6.1 0.00 0.00 0.00 81 947.5
20260510011404 56 290 1.7 6.1 0.00 0.00 0.00 81 947.5
20260510010907 56 289 2.6 5.2 0.00 0.00 0.00 81 947.6
20260510010903 55 289 2.6 5.2 0.00 0.00 0.00 81 947.6
20260510010405 56 275 3.5 7.8 0.00 0.00 0.00 81 947.6
20260510005903 56 289 3.5 7.8 0.00 0.00 0.00 81 947.6
20260510005404 56 251 4.3 7.8 0.00 0.00 0.00 81 947.6
20260510004903 56 300 4.3 7.8 0.00 0.00 0.00 82 947.6
20260510004612 56 269 3.5 6.1 0.00 0.00 0.00 82 947.7
20260510004112 56 283 3.5 6.1 0.00 0.00 0.00 82 947.8
20260510003404 56 275 2.6 6.1 0.00 0.00 0.00 82 947.9
20260510002903 56 264 2.6 5.2 0.00 0.00 0.00 82 947.9
20260510002404 56 283 2.6 12.2 0.00 0.00 0.00 82 947.8
20260510002111 56 278 5.2 12.2 0.00 0.00 0.00 82 947.8
20260510001403 56 271 2.6 8.7 0.00 0.00 0.00 82 947.7
20260510000902 56 206 4.3 8.7 0.00 0.00 0.00 82 947.8
20260510000403 56 279 2.6 8.7 0.00 0.00 0.00 82 947.9
20260509235902 56 286 5.2 8.7 0.00 0.00 0.00 83 947.9
20260509235403 55 293 1.7 7.8 0.00 0.00 0.00 83 947.9
20260509234901 55 313 2.6 7.8 0.00 0.00 0.00 83 948.0
20260509234403 56 257 2.6 7.8 0.00 0.00 0.00 83 948.0
20260509234109 56 334 2.6 7.8 0.00 0.00 0.00 83 948.1
20260509233403 56 279 1.7 6.1 0.00 0.00 0.00 83 948.1
20260509233110 56 250 2.6 6.1 0.00 0.00 0.00 82 948.1
20260509232402 56 298 3.5 10.4 0.00 0.00 0.00 82 948.1
20260509231901 56 334 5.2 10.4 0.00 0.00 0.00 82 948.2
20260509231402 57 269 3.5 8.7 0.00 0.00 0.00 81 948.2
20260509231109 57 303 5.2 8.7 0.00 0.00 0.00 81 948.3
20260509230612 57 250 3.5 11.3 0.00 0.00 0.00 80 948.5
20260509225901 57 285 7.0 11.3 0.00 0.00 0.00 80 948.4
20260509225401 57 276 5.2 7.8 0.00 0.00 0.00 80 948.4
20260509224901 57 276 2.6 8.7 0.00 0.00 0.00 80 948.4
20260509224402 57 299 2.6 8.7 0.00 0.00 0.00 80 948.5
20260509224109 57 295 4.3 6.1 0.00 0.00 0.00 80 948.5
20260509223359 0 266 3.5 0.9 0.00 0.00 0.00 948.5
20260509223136 0 0.0 0.0 0.00 0.00 0.00
20260509222635 57 244 3.5 5.2 0.00 0.00 0.00 80 948.5
20260509222123 57 244 3.5 5.2 0.00 0.00 0.00 80 948.5
20260509221620 57 306 3.5 6.1 0.00 0.00 0.00 80 948.4
20260509221124 57 269 3.5 8.7 0.00 0.00 0.00 80 948.4
20260509220828 57 309 5.2 8.7 0.00 0.00 0.00 81 948.4
20260509220122 57 283 4.3 4.3 0.00 0.00 0.00 81 948.4
20260509215902 0 0.0 0.0 0.00 0.00 0.00 948.4
20260509215831 57 324 4.3 7.8 0.00 0.00 0.00 82 948.4
20260509215402 57 324 4.3 7.8 0.00 0.00 0.00 82 948.4
20260509215332 57 324 4.3 7.8 0.00 0.00 0.00 82 948.4
20260509214831 57 320 2.6 3.5 0.00 0.00 0.00 82 948.4
20260509214335 57 292 3.5 3.5 0.00 0.00 0.00 82 948.3
20260509214330 57 276 1.7 3.5 0.00 0.00 0.00 82 948.4
20260509213804 57 216 1.7 4.3 0.00 0.00 0.00 81 948.3
20260509213333 57 257 3.5 4.3 0.00 0.00 0.00 81 948.3
20260509213305 57 244 3.5 4.3 0.00 0.00 0.00 81 948.3
20260509212833 57 235 3.5 4.3 0.00 0.00 0.00 81 948.2
20260509212805 57 237 2.6 6.1 0.00 0.00 0.00 81 948.2
20260509212513 57 233 1.7 6.1 0.00 0.00 0.00 81 948.0
20260509211832 57 274 5.2 6.1 0.00 0.00 0.00 81 948.1
20260509211805 57 289 3.5 5.2 0.00 0.00 0.00 81 948.1
20260509211513 57 258 2.6 5.2 0.00 0.00 0.00 81 948.2
20260509210832 58 237 1.7 3.5 0.00 0.00 0.00 81 948.0
20260509210805 58 238 1.7 3.5 0.00 0.00 0.00 81 948.1
20260509210332 58 245 1.7 3.5 0.00 0.00 0.00 81 948.1
20260509210305 58 228 0.9 3.5 0.00 0.00 0.00 81 948.1
20260509205833 58 224 2.6 5.2 0.00 0.00 0.00 81 948.1
20260509205804 58 235 3.5 5.2 0.00 0.00 0.00 81 948.0
20260509205332 58 275 2.6 5.2 0.00 0.00 0.00 81 948.0
20260509205307 58 234 3.5 5.2 0.00 0.00 0.00 81 948.0
20260509204831 58 240 1.7 3.5 0.00 0.00 0.00 81 948.2
20260509204804 58 258 1.7 3.5 0.00 0.00 0.00 81 948.2
20260509204513 58 216 1.7 3.5 0.00 0.00 0.00 81 948.1
20260509203831 58 230 1.7 4.3 0.00 0.00 0.00 81 948.1
20260509203805 58 261 1.7 4.3 0.00 0.00 0.00 81 948.1
20260509203306 58 223 1.7 5.2 0.00 0.00 0.00 81 948.1
20260509203011 58 190 1.7 7.8 0.00 0.00 0.00 81 948.1
20260509202306 58 255 2.6 7.8 0.00 0.00 0.00 81 948.1
20260509202259 58 248 2.6 6.1 0.00 0.00 0.00 81 948.1
20260509201801 58 219 2.6 7.8 0.00 0.00 0.00 81 948.1
20260509201741 58 234 1.7 8.7 0.00 0.00 0.00 81 948.1
20260509201444 58 251 3.5 8.7 0.00 0.00 0.00 81 948.1
20260509200803 58 271 3.5 8.7 0.00 0.01 0.00 83 948.0
20260509200736 58 231 3.5 6.1 0.00 0.01 0.00 83 948.0
20260509200443 58 221 1.7 3.5 0.00 0.01 0.00 83 948.0
20260509195942 58 244 0.9 3.5 0.00 0.01 0.00 83 947.9
20260509195301 59 268 1.7 5.2 0.00 0.02 0.00 82 947.9
20260509195234 59 286 1.7 5.2 0.00 0.02 0.00 81 947.9
20260509194802 59 295 1.7 5.2 0.00 0.02 0.00 81 947.8
20260509194734 59 292 1.7 5.2 0.00 0.02 0.00 81 947.8
20260509194302 59 296 1.7 11.3 0.00 0.02 0.00 80 947.9
20260509194234 59 299 1.7 11.3 0.00 0.02 0.00 80 947.9
20260509193802 60 23 6.1 11.3 0.00 0.03 0.00 79 948.0
20260509193733 60 331 6.1 11.3 0.00 0.03 0.00 79 948.0
20260509193302 60 306 6.1 11.3 0.00 0.06 0.00 79 947.9
20260509193234 60 307 6.1 11.3 0.00 0.06 0.00 79 947.9
20260509192801 60 39 6.1 13.0 0.00 0.07 0.00 79 947.9
20260509192733 60 25 5.2 13.0 0.00 0.07 0.00 79 947.9